Location: Burbank
(38.7788°N, 114.0429°W)
Time: 20:28:07
(UTC+00:00)

S-56A Canister/Altair - Pass Details

Date: 18 May 2026
Orbit: 632 x 2484 km, 38.9° (Epoch: 8 June)

Event Time Altitude Azimuth Distance (km) Brightness Sun altitude
Rises 00:31:04 0° 195° (SSW) 3,922 11.3 23.8°
Reaches altitude 10° 00:36:41 10° 160° (SSE) 2,519 10.0 22.8°
Maximum altitude 00:37:54 11° 147° (SSE) 2,387 9.8 22.5°
Drops below altitude 10° 00:39:04 10° 135° (SE) 2,356 9.6 22.3°
Sets 00:43:28 0° 95° (E) 3,041 10.0 21.4°
